Overview Statistics Trail Chart Weather Telemetry Raw packets
 

This is the latest recevied weather packets stored in our database for station/object KC8SWY-15. If no packets are shown the sender has not sent any weather packets the latest 10 day(s).

<< 73 74 75 76 77 78 79 >>
Time Temp. Humidity Pressure Rain* Wind** Luminosity Snow
1788202962 30° C 54% 1013.3 hPa 0 mm - - -
1788202845 30° C 54% 1013.3 hPa 0 mm - - -
1788202545 30° C 55% 1013.3 hPa 0 mm - - -
1788202245 30° C 58% 1013.4 hPa 0 mm - - -
1788201945 29.44° C 57% 1013.4 hPa 0 mm - - -
1788201645 29.44° C 60% 1013.5 hPa 0 mm - - -
1788201345 28.89° C 61% 1013.6 hPa 0 mm - - -
1788201151 28.89° C 59% 1013.7 hPa 0 mm - - -
1788201045 28.89° C 59% 1013.7 hPa 0 mm - - -
1788200745 28.33° C 60% 1013.8 hPa 0 mm - - -
1788200445 28.33° C 62% 1013.9 hPa 0 mm - - -
1788200145 28.33° C 62% 1014.1 hPa 0 mm - - -
1788199845 28.89° C 60% 1014.1 hPa 0 mm - - -
1788199545 28.89° C 59% 1014.2 hPa 0 mm - - -
1788199311 28.89° C 59% 1014.2 hPa 0 mm - - -
1788199245 28.89° C 59% 1014.2 hPa 0 mm - - -
1788198945 28.89° C 58% 1014.2 hPa 0 mm - - -
1788198645 28.89° C 56% 1014.4 hPa 0 mm - - -
1788198345 28.89° C 60% 1014.5 hPa 0 mm - - -
1788198045 28.33° C 61% 1014.6 hPa 0 mm - - -
1788197745 28.33° C 61% 1014.5 hPa 0 mm - - -
1788197445 27.78° C 63% 1014.4 hPa 0 mm - - -
1788197145 27.22° C 67% 1014.5 hPa 0 mm - - -
1788196845 27.22° C 68% 1014.6 hPa 0 mm - - -
1788196545 26.67° C 69% 1014.8 hPa 0 mm - - -

* Rain latest hour (hover to see other rain measurements)
** Current wind speed in m/s (hover to see current wind gust speed)